Regional Weather Roundup
Issued by NWS

Home | Current Version | Previous Version | Text Only | Print | Product List | Glossary On
Versions: 1 2 3 4 5 6 7 8 9 10 11 12 13 14 15 16 17 18 19 20 21 22 23 24 25 26 27
000
ASUS45 KBOU 240610
RWRCO

WEATHER ROUNDUP FOR COLORADO
NATIONAL WEATHER SERVICE DENVER/BOULDER CO
1200 AM MDT TUE MAY 24 2022

NOTE: "FAIR" INDICATES FEW OR NO CLOUDS BELOW 12000 FEET WITH NO
SIGNIFICANT WEATHER AND/OR OBSTRUCTIONS TO VISIBILITY.

COZ001>005-013-030-031-240700-
...NORTHWEST COLORADO...

CITY           SKY/WX    TMP DP  RH WIND       PRES   REMARKS
CRAIG          FAIR      38  32  79 E3        30.04F
HAYDEN         CLOUDY    41  30  65 CALM      30.06F
MEEKER         FAIR      37  28  70 CALM      30.04F
RANGELY        FAIR      46  28  48 CALM      30.03S
RABBIT EARS PA FAIR      28  28 100 NE7       30.16S WCI  21
STEAMBOAT SPGS FAIR      39  30  69 CALM      30.04F
WALDEN         NOT AVBL
$$

COZ006>008-011-240700-
...WEST CENTRAL VALLEYS...

CITY           SKY/WX    TMP DP  RH WIND       PRES   REMARKS
GRAND JUNCTION FAIR      55  19  24 VRB5      29.96F
MONTROSE       FAIR      48  27  44 E7        29.98S
EAGLE          CLOUDY    45  31  58 CALM      30.05S
RIFLE          FAIR      50  26  39 W5        30.00F
DELTA          FAIR      55  19  24 SE5       29.96F
NUCLA          NOT AVBL
$$

COZ017>023-064>068-240700-
...SOUTHWEST COLORADO...

CITY           SKY/WX    TMP DP  RH WIND       PRES   REMARKS
DURANGO        FAIR      50  28  42 NE9       30.00R
CORTEZ         FAIR      44  14  29 NE3       29.98F
PAGOSA SPRINGS LGT RAIN  43  32  65 E8G23     30.05F
TELLURIDE      FAIR      39  12  33 CALM      30.10F
WOLF CREEK PAS LGT SNOW  23  23 100 NW8         N/A  WCI  14
$$

COZ009-010-012-014-032>034-037-058>063-240700-
...CENTRAL COLORADO...

CITY           SKY/WX    TMP DP  RH WIND       PRES   REMARKS
ASPEN          FAIR      39  25  57 CALM      30.04F
BUENA VISTA    MIX PCPN  33  32  95 NW5       30.11F WCI  29
COPPER MTN     LGT SNOW  30  27  86 NE3       30.18F
BERTHOUD PASS  CLOUDY    21  19  93 SE18G28   30.17F WCI   6
DAKOTA HILL    CLOUDY    27  27 100 NE3       30.17S VSB 1/2
COTTONWOOD PAS SNOW      32 N/A N/A SE10      30.13F VSB<1/4 WCI  24
GUNNISON       FAIR      46  20  35 SW5       30.02F
GRANBY         CLOUDY    40  29  66 CALM      30.09S
KREMMLING      CLOUDY    41  30  65 N8        30.06F
LEADVILLE      LGT SNOW  31  31 100 S7        30.11F VSB 1   WCI  24
MONARCH PASS   CLOUDY    27  27 100 MISG      30.26R
SALIDA         CLOUDY    38  35  91 CALM      30.17F
SUNLIGHT       FAIR      30  16  55 W7        30.18F WCI  23
WILKERSON PASS CLOUDY    28  27  93 N7        30.17F VSB 1/2 WCI  21
$$

COZ069>075-240700-
...SAN LUIS VALLEY/SANGRE DE CRISTO MOUNTAINS...

CITY           SKY/WX    TMP DP  RH WIND       PRES   REMARKS
ALAMOSA        LGT RAIN  42  37  82 N9        30.03F
DEL NORTE      CLOUDY    39  33  77 W9        30.05F
LA VETA PASS   HVY SNOW  30  30 100 E8        30.11F VSB<1/4 WCI  23
SAGUACHE         N/A     41  34  75 SE7       30.06F
$$

COZ035-036-038>040-240700-
...NORTHERN COLORADO FRONT RANGE...

CITY           SKY/WX    TMP DP  RH WIND       PRES   REMARKS
DENVER INTL AP MOCLDY    44  38  79 NE8       30.07F
AURORA         NOT AVBL
WATKINS        NOT AVBL
ERIE           CLOUDY    49  37  62 E3        30.08F
BOULDER        DRIZZLE   45  45 100 W8        30.08F
CENTENNIAL     CLOUDY    44  41  89 NW5       30.07F
BROOMFIELD     CLOUDY    46  41  81 NW9       30.09F
FORT COLLINS   FAIR      45  40  82 E7        30.09F
LONGMONT       CLOUDY    51  39  64 NE8       30.10S
$$

COZ041-046-047-076>085-087-088-240700-
...PIKES PEAK/PALMER DIVIDE AND SOUTHERN FOOTHILLS...

CITY           SKY/WX    TMP DP  RH WIND       PRES   REMARKS
COLO. SPRINGS  LGT RAIN  46  39  76 NW6       30.06F
A. F. ACADEMY  MOCLDY    41  40  94 N10       30.05F
SCHRIEVER AFB  NOT AVBL
CHEYENNE MTN   LGT RAIN  42  37  83 NW15      29.98S
ELLICOTT       LGT RAIN  43  43  99 E5        30.08F
FALCON         CLOUDY    39  37  90 E6        30.09F
FORT CARSON    LGT RAIN  44  44  99 SE10      30.04F
LIMON          CLOUDY    46  41  82 CALM      30.05F
MONUMENT HILL  CLOUDY    37 -13  11 NE5       30.10F
CANON CITY     LGT RAIN  46  45  93 NW5       30.05S
WALSENBURG     NOT AVBL
TRINIDAD       LGT RAIN  46  44  93 E9        30.03F FOG
$$

COZ042>045-048>051-090-091-240700-
...NORTHEAST COLORADO...

CITY           SKY/WX    TMP DP  RH WIND       PRES   REMARKS
GREELEY        MOCLDY    42  38  85 N5        30.09F
AKRON          MOCLDY    43  35  73 SE14G22   30.07S
BURLINGTON     MOCLDY    45  40  82 E9        30.06F
WRAY           CLOUDY    45  41  87 SE10      30.10S
YUMA           MOCLDY    41  28  60 SE9       30.09S
STERLING       FAIR      45  37  76 SE7       30.07S
HOLYOKE        CLOUDY    46  41  81 SE12      30.11S
FORT MORGAN    FAIR      41  41 100 NE10      30.07F
$$

COZ086-089-092>099-240700-
...SOUTHEAST COLORADO...

CITY           SKY/WX    TMP DP  RH WIND       PRES   REMARKS
PUEBLO         LGT RAIN  48  46  93 SE7       30.04F
LA JUNTA       CLOUDY    48  46  93 NE6       30.03S
LAMAR          CLOUDY    49  46  90 NE9       30.01F
SPRINGFIELD      N/A     48  46  93 E12       30.00F
$$



USA.gov is the U.S. government's official web portal to all federal, state and local government web resources and services.